Campo, CA

5:00 AM PST on November 13, 2019 (GMT -0800)
Campo

Weather History for KCZZ - October, 2019

Change the Weather History Date:

Wednesday, October 23, 2019

  Actual Average Record
Temperature  
Mean Temperature 67 °F 59 °F  
Max Temperature 90 °F 77 °F 93 °F (2003)
Min Temperature 44 °F 41 °F 26 °F (1996)
Degree Days  
Heating Degree Days 0 6  
Month to date heating degree days 99 102  
Since 1 July heating degree days 155 152  
Cooling Degree Days 2 0  
Month to date cooling degree days 12 27  
Year to date cooling degree days 815 838  
Growing Degree Days 18 (Base 50)    
Moisture  
Dew Point 24 °F    
Average Humidity 26    
Maximum Humidity 42    
Minimum Humidity 9    
Precipitation  
Precipitation 0.00 in 0.03 in 0.09 in (1987)
Month to date precipitation 0.00 0.57  
Year to date precipitation 13.53 12.08  
Sea Level Pressure  
Sea Level Pressure 29.89 in    
Wind  
Wind Speed 6 mph (NE)    
Max Wind Speed 14 mph    
Max Gust Speed 19 mph    
T = Trace of Precipitation, MM = Missing Value Source: NWS Daily Summary

Daily Weather History Graph

Daily Weather History Graph

Search for Another Location

Airport or City:

Astronomy

Oct. 23, 2019 Rise Set
Actual Time 6:55 AM PDT 6:04 PM PDT
Civil Twilight 6:30 AM PDT 6:29 PM PDT
Nautical Twilight 6:02 AM PDT 6:57 PM PDT
Astronomical Twilight 5:33 AM PDT 7:26 PM PDT
Moon 1:43 AM PDT (10/23) 3:36 PM PDT (10/23)
Length of Visible Light 11h 58m
Length of Day
11h 08m
Waning Crescent, 25% of the Moon is Illuminated
Oct 23
Waning Crescent
Oct 27
New
Nov 4
First Quarter
Nov 12
Full
Nov 19
Last Quarter

Hourly Weather History & Observations

Time (PDT) Temp. Windchill Dew Point Humidity Pressure Visibility Wind Dir Wind Speed Gust Speed Precip Events Conditions
12:52 AM 51.1 °F - 24.1 °F 35% 29.96 in - NE 6.9 mph - N/A   Unknown
1:52 AM 50.0 °F - 24.1 °F 36% 29.95 in - NE 8.1 mph - N/A   Unknown
2:52 AM 51.1 °F - 24.1 °F 35% 29.93 in - NE 6.9 mph - N/A   Unknown
3:52 AM 50.0 °F - 24.1 °F 36% 29.91 in - NNE 8.1 mph - N/A   Unknown
4:52 AM 46.9 °F - 24.1 °F 41% 29.92 in - ENE 9.2 mph - N/A   Unknown
5:52 AM 48.9 °F - 24.1 °F 38% 29.92 in - NE 8.1 mph - N/A   Unknown
6:52 AM 46.0 °F 41.9 °F 24.1 °F 42% 29.93 in - NE 8.1 mph - N/A   Unknown
7:52 AM 54.0 °F - 25.0 °F 33% 29.95 in - NE 5.8 mph - N/A   Unknown
8:52 AM 68.0 °F - 28.0 °F 22% 29.94 in - Calm Calm - N/A   Unknown
9:52 AM 79.0 °F - 26.1 °F 14% 29.92 in - Calm Calm - N/A   Unknown
10:52 AM 84.9 °F - 24.1 °F 11% 29.90 in - Variable 3.5 mph - N/A   Unknown
11:52 AM 88.0 °F - 24.1 °F 10% 29.88 in - East 3.5 mph - N/A   Unknown
12:52 PM 88.0 °F - 23.0 °F 9% 29.85 in - Variable 4.6 mph - N/A   Unknown
1:52 PM 89.1 °F - 24.1 °F 9% 29.82 in - North - - N/A   Unknown
2:52 PM 89.1 °F - 24.1 °F 9% 29.81 in - SSW 4.6 mph - N/A   Unknown
3:52 PM 88.0 °F - 23.0 °F 9% 29.81 in - East 10.4 mph - N/A   Unknown
4:52 PM 84.9 °F - 23.0 °F 10% 29.82 in - ENE 12.7 mph - N/A   Unknown
5:52 PM 80.1 °F - 23.0 °F 12% 29.83 in - ENE 5.8 mph - N/A   Unknown
6:52 PM 66.9 °F - 24.1 °F 20% 29.86 in - NE 3.5 mph - N/A   Unknown
7:52 PM 62.1 °F - 24.1 °F 23% 29.88 in - NNE 6.9 mph - N/A   Unknown
8:52 PM 59.0 °F - 23.0 °F 25% 29.88 in - NE 5.8 mph - N/A   Unknown
9:52 PM 55.0 °F - 23.0 °F 29% 29.87 in - NNE 4.6 mph - N/A   Unknown
10:52 PM 55.9 °F - 24.1 °F 29% 29.87 in - NNE 4.6 mph - N/A   Unknown
11:52 PM 55.0 °F - 24.1 °F 30% 29.86 in - NE 4.6 mph - N/A   Unknown